Location: Aalen
(48.8330°N, 10.1000°E)
Time: 03:11:24
(UTC+01:00)

Envisat - Pass Details

Date: 03 December 2022
Orbit: 763 x 765 km, 98.2° (Epoch: 28 January)

Event Time Altitude Azimuth Distance (km) Brightness Sun altitude
Rises 05:18:34 0° 9° (N) 3,246 6.3 -24.6°
Reaches altitude 10° 05:20:57 10° 4° (N) 2,315 5.4 -24.3°
Enters shadow 05:23:33 29° 348° (NNW) 1,398 4.1 -23.8°
